This demonstration page uses our WeatherBlox Daily Observations layout. Learn more.

Left ArrowRight Arrow

Hourly Observations for March 2, 2020

Temp ( °F °C ) Dew Point ( °F °C ) Humidity (%) Winds ( mph kmh ) Pressure ( in mb ) Visibility ( mi km ) Precip ( " mm )
12:54 am 00:54 Clear 34 1.1 26 -3.3 73 73 N 13 20 29.98 1015 10 16.0934 0 0
1:54 am 01:54 Clear 36 2.2 25 -3.9 64 64 NNW 12 19 30 1016 10 16.0934 0 0
2:54 am 02:54 Clear 35 1.7 26 -3.3 70 70 NW 7 11 29.98 1015 10 16.0934 0 0
3:54 am 03:54 Clear 34 1.1 25 -3.9 70 70 NW 6 9 29.97 1015 10 16.0934 0 0
4:54 am 04:54 Cloudy 35 1.7 25 -3.9 67 67 NNW 9 15 29.96 1015 10 16.0934 0 0
5:02 am 05:02 Cloudy with Light Snow 35 1.7 26 -3.3 70 70 NNW 16 26 30 1016 8 12.87472 0.001 0.001
5:17 am 05:17 Cloudy with Light Snow 33 0.6 29 -1.7 85 85 NW 12 19 30.01 1016 2.5 4.02335 0.001 0.001
5:20 am 05:20 Cloudy with Light Snow 33 0.6 29 -1.7 85 85 NNW 12 19 30.01 1016 3 4.82802 0.001 0.001
5:44 am 05:44 Cloudy with Light Snow 33 0.6 30 -1.1 89 89 N 9 15 30 1016 8 12.87472 0.001 0.001
5:54 am 05:54 Cloudy with Light Snow 32 0 30 -1.1 92 92 N 7 11 29.96 1015 5 8.0467 0.001 0.001
6:54 am 06:54 Cloudy 33 0.6 29 -1.7 85 85 NNW 6 9 29.95 1014 10 16.0934 0.001 0.001
7:54 am 07:54 Partly Cloudy 32 0 26 -3.3 79 79 NNW 7 11 29.94 1014 10 16.0934 0 0
8:54 am 08:54 Sunny 34 1.1 26 -3.3 73 73 N 7 11 29.94 1014 10 16.0934 0 0
9:54 am 09:54 Sunny 37 2.8 25 -3.9 62 62 N 6 9 29.94 1014 10 16.0934 0 0
10:54 am 10:54 Sunny 39 3.9 25 -3.9 57 57 Calm 29.94 1014 10 16.0934 0 0
11:54 am 11:54 Mostly Cloudy 42 5.6 24 -4.4 49 49 W 6 9 29.91 1013 10 16.0934 0 0
12:54 pm 12:54 Cloudy 45 7.2 23 -5 42 42 SSW 9 15 29.86 1011 10 16.0934 0 0
1:54 pm 13:54 Cloudy 45 7.2 28 -2.2 52 52 SW 13 20 29.8 1009 10 16.0934 0 0
2:54 pm 14:54 Cloudy 47 8.3 27 -2.8 46 46 WSW 9 15 29.75 1008 10 16.0934 0 0
3:54 pm 15:54 Cloudy 47 8.3 27 -2.8 46 46 WSW 8 13 29.72 1007 10 16.0934 0 0
4:54 pm 16:54 Sunny 49 9.4 27 -2.8 43 43 SW 14 22 29.7 1006 10 16.0934 0 0
5:54 pm 17:54 Sunny 47 8.3 28 -2.2 48 48 SW 9 15 29.71 1006 10 16.0934 0 0
6:54 pm 18:54 Clear 41 5 27 -2.8 57 57 SSW 6 9 29.72 1007 10 16.0934 0 0
7:54 pm 19:54 Clear 35 1.7 26 -3.3 70 70 S 8 13 29.71 1006 10 16.0934 0 0
8:54 pm 20:54 Mostly Cloudy 36 2.2 27 -2.8 70 70 SSW 5 7 29.7 1006 10 16.0934 0 0
9:54 pm 21:54 Mostly Cloudy 38 3.3 29 -1.7 70 70 SSW 3 6 29.69 1006 10 16.0934 0 0
10:54 pm 22:54 Partly Cloudy 41 5 29 -1.7 62 62 W 6 9 29.7 1006 10 16.0934 0 0
11:54 pm 23:54 Mostly Clear 41 5 29 -1.7 62 62 W 6 9 29.7 1006 10 16.0934 0 0

Powered by AerisWeather